Weather in Greater Sudbury

Canada     46°29′36″N   80°59′23″W
temp.,
°C
wind,
m/s
gust,
m/s
humid.,
%
clouds,
%
prec.,
mm/h
press.,
hPa
HPBL,
m
19 april, mon
mon1923:00+6sse2379100 0.0 101089
02:00+5s238198 0.0 100999
05:00+3sse2489100 0.0 100887
08:00+4s3779100 0.0 1007224
11:00+9sse585263 0.0 1005998
14:00+7s61172100 0.3 10021084
17:00+3sw5108799 2.7 1003866
20:00+2sw6107762 2.8 10041026
20 april, tue
tue2023:00−2wsw6127736 0.1 10051257
02:00−3wsw7138294 0.1 1005961
05:00−3w5974100 0.1 10071017
08:00−3wnw5865100 0.1 10101317
11:00−1wnw6844100 0.0 10121677
14:00+2wnw5837100 0.0 10122055
17:00+2wnw6837100 0.0 10132068
20:00−1nnw575230 0.0 10161041
21 april, wed
wed2123:00−5n37635 0.0 1018756
02:00−5n37625 0.0 1017815
05:00−6nnw256472 0.0 1017754
08:00−4nnw3559100 0.0 10171011
11:00−2nnw3453100 0.1 10171414
14:00+1nnw3542100 0.1 10151820
17:00+2nnw4635100 0.0 10141982
20:000nnw2445100 0.0 101495
22 april, thu
thu2223:00−2nw2253100 0.0 101441
02:00−3nw276313 0.0 1014180
05:00−5wnw26915 0.0 1013147
08:00−2w496660 0.0 1013444
11:00+3w5846100 0.0 10111790
14:00+6w6942100 0.0 10091971
17:00+7w61352100 0.0 10081936
20:00+5wsw61264100 0.1 1008873
23 april, fri
fri2323:00+1wsw4138311 0.0 1009379
02:000wsw4138939 0.0 1009325
05:000wsw414915 0.0 1009348
08:00+3wsw4138292 0.0 1009362
11:00+10wsw61055100 0.0 1008759
14:00+14wsw713425 0.0 10072080
17:00+14wsw7134658 0.0 10062256
20:00+9wsw61466100 0.0 10071097